Location: Berlise
(49.6641°N, 4.1077°E)
Time: 02:11:42
(UTC+00:00)

Cosmos 2237 Rocket - Pass Details

Date: 27 January 2021
Orbit: 833 x 851 km, 71.0° (Epoch: 28 February)

Event Time Altitude Azimuth Distance (km) Brightness Sun altitude
Exits shadow 03:42:47 38° 100° (E) 1,279 3.4 -35.4°
Drops below altitude 10° 03:47:41 10° 41° (NE) 2,485 5.2 -34.6°
Sets 03:50:17 0° 34° (NE) 3,426 5.9 -34.2°
